Mount Carmel, IL

6:56 AM CST on December 10, 2019 (GMT -0600)
Mount Carmel Municipal

Weather History for KAJG - October, 2019

Change the Weather History Date:

Sunday, October 20, 2019

  Actual Average (KLWV) Record (KLWV)
Temperature  
Mean Temperature 58 °F -  
Max Temperature 73 °F 64 °F 84 °F (2003)
Min Temperature 44 °F 42 °F 27 °F (1992)
Degree Days  
Heating Degree Days 6    
Growing Degree Days 8 (Base 50)    
Moisture  
Dew Point 48 °F    
Average Humidity 71    
Maximum Humidity 97    
Minimum Humidity 39    
Precipitation  
Precipitation 0.00 in - - ()
Sea Level Pressure  
Sea Level Pressure 29.86 in    
Wind  
Wind Speed 2 mph (South)    
Max Wind Speed 8 mph    
Max Gust Speed -    
Visibility 10 miles    
Events      
Averages and records for this station are not official NWS values.
T = Trace of Precipitation, MM = Missing Value Source: NWS Daily Summary

Daily Weather History Graph

Daily Weather History Graph

Search for Another Location

Airport or City:

Astronomy

Oct. 20, 2019 Rise Set
Actual Time 7:04 AM CDT 6:05 PM CDT
Civil Twilight 6:37 AM CDT 6:32 PM CDT
Nautical Twilight 6:07 AM CDT 7:03 PM CDT
Astronomical Twilight 5:36 AM CDT 7:34 PM CDT
Moon 11:17 PM CDT (10/20) 1:29 PM CDT (10/20)
Length of Visible Light 11h 54m
Length of Day
11h 01m
Waning Gibbous, 59% of the Moon is Illuminated
Oct 20
Waning Gibbous
Oct 21
Last Quarter
Oct 27
New
Nov 4
First Quarter
Nov 12
Full

Hourly Weather History & Observations

Time (CDT) Temp. Dew Point Humidity Pressure Visibility Wind Dir Wind Speed Gust Speed Precip Events Conditions
12:15 AM 52.7 °F 48.2 °F 85% 29.80 in 10.0 mi North - - N/A   Clear
12:35 AM 52.3 °F 48.2 °F 86% 29.79 in 10.0 mi North - - N/A   Clear
12:55 AM 52.3 °F 48.4 °F 86% 29.79 in 10.0 mi North - - N/A   Clear
1:15 AM 51.4 °F 48.4 °F 89% 29.79 in 10.0 mi North - - N/A   Clear
1:35 AM 49.6 °F 47.5 °F 92% 29.80 in 10.0 mi North - - N/A   Clear
1:55 AM 49.1 °F 46.4 °F 90% 29.81 in 10.0 mi North - - N/A   Clear
2:15 AM 49.1 °F 46.6 °F 91% 29.81 in 10.0 mi North - - N/A   Clear
2:35 AM 47.3 °F 45.0 °F 92% 29.81 in 10.0 mi North - - N/A   Clear
2:55 AM 46.8 °F 45.0 °F 93% 29.81 in 10.0 mi North - - N/A   Scattered Clouds
3:15 AM 47.3 °F 45.0 °F 92% 29.81 in 10.0 mi North - - N/A   Mostly Cloudy
3:35 AM 48.9 °F 46.6 °F 92% 29.81 in 10.0 mi North - - N/A   Overcast
3:55 AM 50.4 °F 48.4 °F 93% 29.81 in 10.0 mi Calm Calm - N/A   Overcast
4:15 AM 50.5 °F 47.7 °F 90% 29.81 in 10.0 mi North - - N/A   Overcast
4:35 AM 50.7 °F 48.6 °F 92% 29.82 in 10.0 mi North - - N/A   Overcast
4:55 AM 50.9 °F 48.0 °F 90% 29.83 in 10.0 mi North - - N/A   Overcast
5:15 AM 50.4 °F 47.7 °F 90% 29.84 in 10.0 mi North - - N/A   Mostly Cloudy
5:35 AM 49.8 °F 46.9 °F 90% 29.84 in 10.0 mi North - - N/A   Scattered Clouds
5:55 AM 48.6 °F 46.0 °F 91% 29.85 in 10.0 mi North - - N/A   Scattered Clouds
6:15 AM 46.8 °F 44.6 °F 92% 29.85 in 10.0 mi North - - N/A   Scattered Clouds
6:35 AM 46.0 °F 44.4 °F 94% 29.86 in 10.0 mi North - - N/A   Clear
6:55 AM 45.1 °F 43.9 °F 95% 29.87 in 10.0 mi North - - N/A   Clear
7:15 AM 44.6 °F 43.7 °F 97% 29.87 in 10.0 mi North - - N/A   Clear
7:35 AM 46.4 °F 45.3 °F 96% 29.87 in 10.0 mi North - - N/A   Clear
7:55 AM 46.9 °F 46.0 °F 97% 29.88 in 10.0 mi North - - N/A   Clear
8:15 AM 49.6 °F 48.2 °F 95% 29.89 in 10.0 mi North - - N/A   Clear
8:35 AM 52.3 °F 48.2 °F 86% 29.89 in 10.0 mi North - - N/A   Clear
8:55 AM 55.2 °F 49.5 °F 81% 29.90 in 10.0 mi North - - N/A   Clear
9:15 AM 57.4 °F 49.8 °F 76% 29.90 in 10.0 mi North - - N/A   Clear
9:35 AM 60.4 °F 50.2 °F 69% 29.90 in 10.0 mi North - - N/A   Clear
9:55 AM 62.1 °F 50.5 °F 66% 29.91 in 10.0 mi Calm Calm - N/A   Clear
10:15 AM 63.5 °F 50.2 °F 62% 29.91 in 10.0 mi Calm Calm - N/A   Clear
10:35 AM 64.4 °F 49.8 °F 59% 29.91 in 10.0 mi Calm Calm - N/A   Clear
10:55 AM 65.8 °F 50.0 °F 57% 29.92 in 10.0 mi Calm Calm - N/A   Clear
11:15 AM 68.0 °F 49.8 °F 52% 29.92 in 10.0 mi Calm Calm - N/A   Clear
11:35 AM 68.2 °F 49.6 °F 51% 29.92 in 10.0 mi South 3.5 mph - N/A   Clear
11:55 AM 68.9 °F 48.6 °F 48% 29.91 in 10.0 mi South 5.8 mph - N/A   Clear
12:15 PM 69.6 °F 47.7 °F 45% 29.91 in 10.0 mi Calm Calm - N/A   Clear
12:35 PM 69.3 °F 48.4 °F 47% 29.90 in 10.0 mi Calm Calm - N/A   Clear
12:55 PM 70.3 °F 48.0 °F 45% 29.90 in 10.0 mi NNW 3.5 mph - N/A   Clear
1:15 PM 71.2 °F 48.4 °F 44% 29.89 in 10.0 mi SSW 4.6 mph - N/A   Scattered Clouds
1:35 PM 71.2 °F 48.0 °F 44% 29.89 in 10.0 mi Calm Calm - N/A   Mostly Cloudy
1:55 PM 72.3 °F 48.4 °F 43% 29.88 in 10.0 mi SSE 5.8 mph - N/A   Scattered Clouds
2:15 PM 72.5 °F 48.4 °F 42% 29.87 in 10.0 mi North - - N/A   Clear
2:35 PM 72.9 °F 48.2 °F 42% 29.86 in 10.0 mi South 6.9 mph - N/A   Clear
2:55 PM 72.9 °F 47.7 °F 41% 29.86 in 10.0 mi South 8.1 mph - N/A   Clear
3:15 PM 73.4 °F 48.2 °F 41% 29.86 in 10.0 mi North - - N/A   Clear
3:35 PM 73.6 °F 47.5 °F 39% 29.87 in 10.0 mi South 6.9 mph - N/A   Clear
3:55 PM 73.4 °F 47.3 °F 39% 29.87 in 10.0 mi SSW 6.9 mph - N/A   Clear
4:15 PM 73.2 °F 48.0 °F 41% 29.87 in 10.0 mi SW 6.9 mph - N/A   Clear
4:35 PM 72.3 °F 46.4 °F 40% 29.87 in 10.0 mi SW 6.9 mph - N/A   Scattered Clouds
4:55 PM 71.8 °F 47.5 °F 42% 29.87 in 10.0 mi South 6.9 mph - N/A   Mostly Cloudy
5:15 PM 71.1 °F 47.3 °F 43% 29.87 in 10.0 mi North - - N/A   Overcast
5:35 PM 70.0 °F 47.8 °F 45% 29.87 in 10.0 mi North - - N/A   Overcast
5:55 PM 68.9 °F 48.6 °F 48% 29.87 in 10.0 mi North - - N/A   Overcast
6:15 PM 66.7 °F 50.0 °F 55% 29.87 in 10.0 mi North - - N/A   Overcast
6:35 PM 64.6 °F 47.3 °F 53% 29.87 in 10.0 mi North - - N/A   Mostly Cloudy
6:55 PM 62.2 °F 48.9 °F 62% 29.88 in 10.0 mi North - - N/A   Scattered Clouds
7:15 PM 60.6 °F 48.7 °F 65% 29.88 in 10.0 mi North - - N/A   Mostly Cloudy
7:35 PM 59.9 °F 50.0 °F 70% 29.88 in 10.0 mi North - - N/A   Overcast
7:50 PM 58.1 °F 50.0 °F 74% 29.88 in 10.0 mi North - - N/A   Scattered Clouds
8:15 PM 57.4 °F 48.9 °F 73% 29.88 in 10.0 mi North - - N/A   Clear
8:35 PM 54.7 °F 47.3 °F 76% 29.88 in 10.0 mi North - - N/A   Clear
8:55 PM 54.0 °F 47.3 °F 78% 29.88 in 10.0 mi North - - N/A   Clear
9:15 PM 53.2 °F 48.0 °F 82% 29.87 in 10.0 mi North - - N/A   Clear
9:35 PM 54.5 °F 48.7 °F 81% 29.88 in 10.0 mi North - - N/A   Clear
9:55 PM 53.8 °F 48.2 °F 81% 29.88 in 10.0 mi North - - N/A   Clear
10:15 PM 52.7 °F 48.7 °F 86% 29.88 in 10.0 mi North - - N/A   Mostly Cloudy
10:35 PM 55.0 °F 50.0 °F 83% 29.88 in 10.0 mi North - - N/A   Overcast
10:55 PM 55.6 °F 49.8 °F 81% 29.87 in 10.0 mi ESE 6.9 mph - N/A   Overcast
11:15 PM 55.4 °F 49.8 °F 81% 29.87 in 10.0 mi North - - N/A   Mostly Cloudy
11:35 PM 54.5 °F 50.0 °F 85% 29.85 in 10.0 mi North - - N/A   Mostly Cloudy
11:55 PM 55.9 °F 50.9 °F 83% 29.83 in 10.0 mi ESE 6.9 mph - N/A   Scattered Clouds